LUCH 5V

Last updated on Aug. 15, 2020, 5:34 a.m. UTC

1 39727U 14023A   20227.38521787 -.00000267  00000-0  00000-0 0  9998
2 39727   0.4682 346.1823 0003055 148.8595  61.6665  1.00272044 23016
UTC
Height (km)
Latitude
Longitude
Inclination
Orbital Period
UTC large
Height (km)
Speed (km/s)
/
Latitude / Longitude
Inclination (degrees)
Orbital Period (minutes)
Azimuth
Elevation
Range (km)
Doppler Factor
iOS Compass Heading
iOS Angle

Next 30 passes for location: Hong Kong

Rise time Rise Azimuth (degrees) Set time Set Azimuth (degrees) Duration Max altitude (degrees)

No matching passes for this satellites